Kezdőlap
METAR-TAF:

METAR-TAF

Repülőterek :

Red Wing Regional Airport

Red Wing, Minnesota, Amerikai Egyesült Államok

földrajzi szélesség: 44-35-25N, földrajzi hosszúság: 092-29-10W, magasság: 239 m

Jelenlegi meteorológiai megfigyelések

A jelentés 13 perccel ezelõtt készült, 17:15 UTC
Északi szél 4 kt
Hőmérséklet 29°C
Páratartalom 27%
Légköri nyomás 1009 hPa
Látótávolság: 16.1 km
Derült ég

METAR: KRGK 181715Z AUTO 35004KT 10SM CLR 29/08 A2981 RMK AO2

Idő: 12:28 (17:28 UTC)


TAF: hiányzik

Meteorológiai megfigyelések és előrejelzések több, mint 4000 repülőtéren (METAR és TAF jelentéseket).

A térképen piros és sárga pontok jelzik az elérhető meteorológiai állomásokat.

Mozgassa az egeret a pont fölött, hogy megjelenjen az állomás neve.

Azután kattintson az időjárási megfigyelések és előrejelzések megtekintéséhez.

A térkép megváltoztatása: kattintson a fekete keresztel jelölt zöld gombra ráközelítéshez, a vonallal jelölt zöld gombra távolításhoz, vagy a zöld nyilakra a szomszédos térképek eléréséhez.


METAR-TAF: